When you browse on this site, cookies collect data to enhance your experience and personalize the content and advertising you see.
Visit our Privacy Policy to learn more. By continuing to use the site, you agree to this use of cookies and data.
  • In Hungary
  • List of Countries
  • For 7 days
  • Water Temperature
  • Satellite Maps
  • Weather Map
  • News
  • Weather Widgets
  • user-avatar
    Login

    Hourly Weather Mlinov

    Today, 26 April, Friday

    Time Temperature Precipitation Wind Pressure Humidity
    00:00 +12°C° 0.1 mm 3 mps 746 mmHg 82%
    01:00 +12°C° 0.1 mm 4 mps 745 mmHg 83%
    02:00 +12°C° 0.1 mm 4 mps 745 mmHg 85%
    03:00 +11°C° 0.1 mm 3 mps 745 mmHg 87%
    04:00 +11°C° 0.1 mm 3 mps 745 mmHg 88%
    05:00 +11°C° 0.1 mm 3 mps 745 mmHg 90%
    06:00 +12°C° 0.2 mm 3 mps 745 mmHg 86%
    07:00 +14°C° 0.2 mm 3 mps 745 mmHg 82%
    08:00 +15°C° 0.2 mm 4 mps 745 mmHg 77%
    09:00 +18°C° 0 mm 4 mps 745 mmHg 71%
    10:00 +21°C° 0 mm 4 mps 744 mmHg 65%
    11:00 +23°C° 0 mm 4 mps 744 mmHg 59%
    12:00 +25°C° 0 mm 4 mps 744 mmHg 54%
    13:00 +26°C° 0 mm 4 mps 744 mmHg 50%
    14:00 +26°C° 0 mm 5 mps 743 mmHg 45%
    15:00 +26°C° 0 mm 4 mps 743 mmHg 49%
    16:00 +25°C° 0 mm 4 mps 743 mmHg 54%
    17:00 +24°C° 0 mm 3 mps 742 mmHg 58%
    18:00 +22°C° 0.6 mm 4 mps 742 mmHg 62%
    19:00 +21°C° 0.6 mm 5 mps 742 mmHg 66%
    20:00 +20°C° 0.6 mm 6 mps 742 mmHg 70%
    21:00 +19°C° 0.7 mm 5 mps 742 mmHg 75%
    22:00 +17°C° 0.7 mm 5 mps 742 mmHg 79%
    23:00 +16°C° 0.7 mm 5 mps 742 mmHg 84%

    Tomorrow, 27 April, Saturday

    Time Temperature Precipitation Wind Pressure Humidity
    00:00 +15°C° 0.4 mm 4 mps 741 mmHg 85%
    01:00 +15°C° 0.4 mm 4 mps 741 mmHg 87%
    02:00 +16°C° 0.4 mm 3 mps 741 mmHg 88%
    03:00 +14°C° 1.2 mm 3 mps 741 mmHg 89%
    04:00 +14°C° 1.2 mm 3 mps 741 mmHg 89%
    05:00 +14°C° 1.2 mm 3 mps 740 mmHg 90%
    06:00 +16°C° 0.6 mm 3 mps 740 mmHg 86%
    07:00 +17°C° 0.6 mm 4 mps 740 mmHg 82%
    08:00 +18°C° 0.6 mm 4 mps 741 mmHg 78%
    09:00 +19°C° 0.1 mm 4 mps 741 mmHg 74%
    10:00 +21°C° 0.1 mm 4 mps 740 mmHg 69%
    11:00 +22°C° 0.1 mm 4 mps 740 mmHg 65%
    12:00 +23°C° 0 mm 4 mps 740 mmHg 60%
    13:00 +26°C° 0 mm 4 mps 740 mmHg 54%
    14:00 +27°C° 0 mm 4 mps 740 mmHg 49%
    15:00 +27°C° 0 mm 4 mps 739 mmHg 50%
    16:00 +27°C° 0 mm 3 mps 739 mmHg 50%
    17:00 +26°C° 0 mm 2 mps 739 mmHg 51%
    18:00 +24°C° 0.8 mm 2 mps 739 mmHg 59%
    19:00 +21°C° 0.8 mm 2 mps 739 mmHg 67%
    20:00 +19°C° 0.8 mm 2 mps 739 mmHg 75%
    21:00 +19°C° 2.5 mm 3 mps 739 mmHg 80%
    22:00 +18°C° 2.5 mm 3 mps 739 mmHg 84%
    23:00 +17°C° 2.5 mm 4 mps 739 mmHg 88%

    Day after tomorrow, 28 April, Sunday

    Time Temperature Precipitation Wind Pressure Humidity
    00:00 +17°C° 0.3 mm 3 mps 739 mmHg 90%
    01:00 +16°C° 0.3 mm 3 mps 739 mmHg 92%
    02:00 +16°C° 0.3 mm 2 mps 739 mmHg 95%
    03:00 +14°C° 0 mm 3 mps 739 mmHg 95%
    04:00 +14°C° 0 mm 3 mps 739 mmHg 96%
    05:00 +13°C° 0 mm 3 mps 739 mmHg 96%
    06:00 +13°C° 0 mm 3 mps 739 mmHg 93%
    07:00 +14°C° 0 mm 3 mps 739 mmHg 91%
    08:00 +14°C° 0 mm 3 mps 740 mmHg 88%
    09:00 +16°C° 0 mm 3 mps 740 mmHg 85%
    10:00 +16°C° 0 mm 3 mps 740 mmHg 82%
    11:00 +17°C° 0 mm 3 mps 740 mmHg 79%
    12:00 +18°C° 0 mm 3 mps 740 mmHg 77%
    13:00 +18°C° 0 mm 3 mps 740 mmHg 76%
    14:00 +19°C° 0 mm 3 mps 739 mmHg 74%
    15:00 +19°C° 0.1 mm 3 mps 739 mmHg 75%
    16:00 +19°C° 0.1 mm 3 mps 739 mmHg 76%
    17:00 +19°C° 0.1 mm 3 mps 739 mmHg 77%
    18:00 +18°C° 0.2 mm 3 mps 739 mmHg 80%
    19:00 +17°C° 0.2 mm 3 mps 739 mmHg 84%
    20:00 +16°C° 0.2 mm 3 mps 739 mmHg 88%
    21:00 +16°C° 0.2 mm 3 mps 739 mmHg 90%
    22:00 +14°C° 0.2 mm 3 mps 739 mmHg 92%
    23:00 +14°C° 0.2 mm 3 mps 739 mmHg 94%

    29 April, Monday

    Time Temperature Precipitation Wind Pressure Humidity
    00:00 +15°C° 0.2 mm 2 mps 739 mmHg 95%
    01:00 +15°C° 0.2 mm 2 mps 739 mmHg 96%
    02:00 +14°C° 0.2 mm 2 mps 739 mmHg 97%
    03:00 +14°C° 0.1 mm 2 mps 739 mmHg 96%
    04:00 +13°C° 0.1 mm 3 mps 739 mmHg 96%
    05:00 +13°C° 0.1 mm 3 mps 739 mmHg 95%
    06:00 +13°C° 0.3 mm 4 mps 739 mmHg 94%
    07:00 +14°C° 0.3 mm 4 mps 739 mmHg 92%
    08:00 +14°C° 0.3 mm 5 mps 739 mmHg 90%
    09:00 +14°C° 0.1 mm 6 mps 740 mmHg 88%
    10:00 +15°C° 0.1 mm 6 mps 740 mmHg 87%
    11:00 +15°C° 0.1 mm 6 mps 740 mmHg 85%
    12:00 +14°C° 0.1 mm 7 mps 740 mmHg 85%
    13:00 +14°C° 0.1 mm 7 mps 740 mmHg 85%
    14:00 +12°C° 0.1 mm 7 mps 740 mmHg 85%
    15:00 +12°C° 0 mm 7 mps 740 mmHg 85%
    16:00 +11°C° 0 mm 7 mps 740 mmHg 85%
    17:00 +11°C° 0 mm 7 mps 740 mmHg 85%
    18:00 +10°C° 0.1 mm 7 mps 740 mmHg 86%
    19:00 +10°C° 0.1 mm 7 mps 740 mmHg 86%
    20:00 +9°C° 0.1 mm 6 mps 740 mmHg 87%
    21:00 +9°C° 0.1 mm 6 mps 740 mmHg 88%
    22:00 +9°C° 0.1 mm 6 mps 740 mmHg 88%
    23:00 +9°C° 0.1 mm 6 mps 740 mmHg 89%

    30 April, Tuesday

    Time Temperature Precipitation Wind Pressure Humidity
    00:00 +9°C° 0.2 mm 6 mps 740 mmHg 89%
    01:00 +8°C° 0.2 mm 6 mps 740 mmHg 90%
    02:00 +8°C° 0.2 mm 6 mps 739 mmHg 91%
    03:00 +8°C° 0.4 mm 5 mps 739 mmHg 91%
    04:00 +7°C° 0.4 mm 5 mps 739 mmHg 92%
    05:00 +7°C° 0.4 mm 5 mps 739 mmHg 92%
    06:00 +7°C° 0.3 mm 5 mps 739 mmHg 92%
    07:00 +7°C° 0.3 mm 5 mps 739 mmHg 92%
    08:00 +7°C° 0.3 mm 6 mps 739 mmHg 92%
    09:00 +7°C° 0.5 mm 6 mps 739 mmHg 91%
    10:00 +7°C° 0.5 mm 6 mps 739 mmHg 91%
    11:00 +7°C° 0.5 mm 6 mps 740 mmHg 91%
    12:00 +7°C° 0.4 mm 6 mps 739 mmHg 90%
    13:00 +7°C° 0.4 mm 6 mps 739 mmHg 90%
    14:00 +5°C° 0.4 mm 6 mps 739 mmHg 89%
    15:00 +7°C° 0.3 mm 6 mps 739 mmHg 89%
    16:00 +7°C° 0.3 mm 6 mps 739 mmHg 89%
    17:00 +7°C° 0.3 mm 5 mps 739 mmHg 89%
    18:00 +7°C° 0.9 mm 5 mps 739 mmHg 91%
    19:00 +7°C° 0.9 mm 4 mps 739 mmHg 92%
    20:00 +7°C° 0.9 mm 4 mps 740 mmHg 94%
    21:00 +7°C° 0.3 mm 3 mps 740 mmHg 94%
    22:00 +7°C° 0.3 mm 3 mps 740 mmHg 94%
    23:00 +7°C° 0.3 mm 3 mps 740 mmHg 95%

    1 May, Wednesday

    Time Temperature Precipitation Wind Pressure Humidity
    00:00 +7°C° 0 mm 3 mps 740 mmHg 95%
    01:00 +5°C° 0 mm 3 mps 739 mmHg 95%
    02:00 +5°C° 0 mm 3 mps 739 mmHg 95%
    03:00 +4°C° 0 mm 3 mps 739 mmHg 95%
    04:00 +4°C° 0 mm 3 mps 739 mmHg 95%
    05:00 +3°C° 0 mm 3 mps 739 mmHg 95%
    06:00 +4°C° 0 mm 3 mps 739 mmHg 89%
    07:00 +6°C° 0 mm 4 mps 739 mmHg 84%
    08:00 +7°C° 0 mm 4 mps 739 mmHg 78%
    09:00 +8°C° 0 mm 5 mps 739 mmHg 72%
    10:00 +10°C° 0 mm 5 mps 739 mmHg 66%
    11:00 +12°C° 0 mm 5 mps 739 mmHg 59%
    12:00 +13°C° 0 mm 5 mps 739 mmHg 57%
    13:00 +13°C° 0 mm 4 mps 739 mmHg 54%
    14:00 +14°C° 0 mm 4 mps 739 mmHg 51%
    15:00 +13°C° 0 mm 4 mps 738 mmHg 54%
    16:00 +13°C° 0 mm 4 mps 738 mmHg 56%
    17:00 +13°C° 0 mm 4 mps 738 mmHg 58%
    18:00 +11°C° 0 mm 3 mps 738 mmHg 63%
    19:00 +10°C° 0 mm 3 mps 738 mmHg 68%
    20:00 +8°C° 0 mm 2 mps 738 mmHg 73%
    21:00 +7°C° 0 mm 2 mps 738 mmHg 74%
    22:00 +7°C° 0 mm 2 mps 738 mmHg 75%
    23:00 +7°C° 0 mm 1 mps 738 mmHg 77%
    Show more